This demonstration page uses our WeatherBlox Daily Observations layout. Learn more.

38.89511, -77.03637

Hourly Observations for September 25, 2015

Temp ( °F °C ) Dew Point ( °F °C ) Humidity (%) Winds ( mph kmh ) Pressure ( in mb ) Visibility ( mi km ) Precip ( " mm )
12:52 am 00:52 Cloudy 66 19 54 12 64 64 NE 8 13 30.27 1025 10 16.09344 0 0
1:52 am 01:52 Cloudy 64 18 54 12 68 68 NNE 8 13 30.27 1025 10 16.09344 0 0
2:52 am 02:52 Cloudy 64 18 55 13 73 73 NE 7 11 30.27 1025 10 16.09344 0 0
3:52 am 03:52 Cloudy 64 18 57 14 78 78 NE 8 13 30.27 1025 10 16.09344 0 0
4:52 am 04:52 Cloudy 64 18 55 13 73 73 NNE 12 19 30.24 1024 10 16.09344 0 0
5:52 am 05:52 Mostly Cloudy 64 18 55 13 73 73 NE 9 15 30.27 1025 10 16.09344 0 0
6:52 am 06:52 Mostly Cloudy 64 18 57 14 78 78 NE 9 15 30.27 1025 10 16.09344 0 0
7:52 am 07:52 Cloudy 64 18 59 15 83 83 NE 9 15 30.3 1026 10 16.09344 0 0
8:52 am 08:52 Cloudy 66 19 61 16 83 83 NE 12 19 30.3 1026 10 16.09344 0 0
9:52 am 09:52 Cloudy 70 21 63 17 78 78 NE 12 19 30.3 1026 10 16.09344 0 0
10:52 am 10:52 Cloudy 72 22 63 17 73 73 NE 10 17 30.3 1026 10 16.09344 0 0
11:40 am 11:40 Cloudy 72 22 61 16 69 69 NE 13 20 30.27 1025 10 16.09344 0 0
11:52 am 11:52 Cloudy 72 22 61 16 69 69 NE 13 20 30.27 1025 10 16.09344 0 0
12:08 pm 12:08 Cloudy 72 22 63 17 73 73 NE 14 22 30.27 1025 10 16.09344 0 0
12:28 pm 12:28 Cloudy 72 22 61 16 69 69 NE 16 26 30.27 1025 9 14.484096 0 0
12:52 pm 12:52 Cloudy 72 22 61 16 69 69 NE 14 22 30.3 1026 10 16.09344 0 0
1:52 pm 13:52 Cloudy 72 22 61 16 69 69 ENE 15 24 30.27 1025 10 16.09344 0 0
2:08 pm 14:08 Cloudy 72 22 61 16 69 69 ENE 12 19 30.27 1025 10 16.09344 0 0
2:52 pm 14:52 Cloudy 72 22 61 16 69 69 ENE 17 28 30.27 1025 10 16.09344 0 0
3:52 pm 15:52 Cloudy with Light Rain 72 22 61 16 69 69 ENE 13 20 30.24 1024 10 16.09344 0.001 0.001
4:20 pm 16:20 Cloudy with Light Rain 72 22 61 16 69 69 NE 15 24 30.24 1024 10 16.09344 0 0
4:52 pm 16:52 Cloudy with Light Rain 72 22 61 16 69 69 NE 12 19 30.24 1024 10 16.09344 0.001 0.001
5:52 pm 17:52 Cloudy 70 21 59 15 69 69 ENE 8 13 30.27 1025 10 16.09344 0.001 0.001
6:52 pm 18:52 Cloudy 70 21 57 14 64 64 E 7 11 30.27 1025 10 16.09344 0 0
7:52 pm 19:52 Cloudy 70 21 55 13 60 60 ENE 9 15 30.27 1025 10 16.09344 0 0
8:52 pm 20:52 Cloudy 70 21 55 13 60 60 ENE 10 17 30.27 1025 10 16.09344 0 0
9:52 pm 21:52 Cloudy 68 20 55 13 64 64 ENE 8 13 30.27 1025 10 16.09344 0 0
10:52 pm 22:52 Cloudy 66 19 54 12 64 64 ENE 8 13 30.3 1026 10 16.09344 0 0
11:52 pm 23:52 Cloudy 66 19 55 13 68 68 NE 13 20 30.3 1026 10 16.09344 0 0

Powered by AerisWeather